Location: Frantunskite Koshari
(42.6000°N, 24.0167°E)
Time: 00:31:55
(UTC+00:00)

Daily predictions for brighter satellites

Satellite Brightness Start Highest point End
(mag) Time Altitude Azimuth Time Altitude Azimuth Time Altitude Azimuth
Cosmos 1417 Rocket 4.4 00:05:08 51° S 00:06:49 81° E 00:12:59 10° N
CENTAUR R/B 3.6 00:08:14 23° SE 00:09:49 26° ESE 00:14:52 10° NE
Cosmos 2297 Rocket 4.1 00:14:23 16° WNW 00:16:40 20° NW 00:20:42 10° N
STPSAT 2 (USA 217) 4.4 00:20:23 74° WSW 00:20:41 79° WNW 00:25:12 10° NNE
Cosmos 2082 3.8 00:21:51 47° S 00:23:23 70° ESE 00:29:00 10° NNE
Cosmos 1844 Rocket 4.0 00:24:56 22° SSE 00:27:29 32° ESE 00:32:23 10° NE
ADEOS II 4.0 00:30:26 10° NE 00:34:31 23° E 00:38:34 10° SE
Cosmos 1340 Rocket 3.7 00:31:44 10° NNW 00:34:29 35° WNW 00:34:29 35° WNW
S3M 3.9 00:34:01 42° SSW 00:36:13 71° W 00:42:23 10° N
Meteor 1-13 Rocket 4.2 00:34:39 39° S 00:36:50 81° E 00:42:33 10° NNE
NOSS 2-2 (D) 4.3 00:38:01 29° ESE 00:38:01 29° ESE 00:40:48 10° ENE
Cosmos 2084 3.6 00:35:23 10° NNW 00:39:29 67° NE 00:43:33 10° SE
Atlas Centaur 2 3.7 00:38:39 28° S 00:39:38 29° SSE 00:46:16 10° ESE
Resurs 1-4 Rocket 3.2 00:35:15 10° NNE 00:40:10 39° E 00:43:26 19° SSE
Cosmos 2315 Rocket 4.0 00:39:28 36° SSW 00:42:15 81° W 00:48:38 10° N
Cosmos 1151 Rocket 4.3 00:42:31 26° WNW 00:42:31 26° WNW 00:46:09 10° NNW
BREEZE-M DEB (TANK) 3.2 00:32:33 10° WNW 00:44:02 68° SW 00:47:29 10° SE
Cosmos 1633 Rocket 3.4 00:40:12 10° N 00:44:29 62° E 00:46:41 27° SSE
Cosmos 1703 3.8 00:47:45 35° NW 00:47:45 35° NW 00:50:09 10° N
Lacrosse 4 Rocket 3.9 00:46:05 10° WNW 00:47:11 11° NW 00:48:17 10° NNW
USA 281 3.5 00:48:21 10° SE 00:54:51 69° ENE 01:01:23 10° NNW
BlueWalker 3 4.0 00:52:58 13° WNW 00:54:58 20° NNW 00:57:41 10° NNE
Cosmos 1570 Rocket 4.2 00:53:41 38° SW 00:55:28 57° WNW 01:00:42 10° NNE
Cosmos 2298 Rocket 4.5 00:50:37 10° NNW 00:55:54 62° ENE 01:01:08 10° SSE
BREEZE-M DEB (TANK) 3.8 00:48:17 10° W 00:56:41 42° NNW 00:59:55 10° NE
ADEOS Rocket 3.6 00:51:11 10° N 00:58:47 65° WNW 01:02:53 28° SW
Cosmos 1844 4.2 00:56:37 24° S 00:59:56 54° ESE 01:05:32 10° NNE
ACS3 Solar Sail 3.5 00:57:03 10° NNW 01:00:44 17° WNW 01:03:08 14° W
FENGYUN 3A 4.1 00:57:14 10° N 01:02:25 49° WNW 01:04:35 31° SW
Cosmos 2219 3.6 01:00:18 31° WSW 01:02:38 49° WNW 01:08:06 10° NNE
SL-16 R/B 2.7 00:58:44 10° NW 01:03:56 38° WSW 01:05:31 32° SW
USA 307 2.2 01:05:40 54° SSE 01:05:40 54° SSE 01:08:37 10° SE
Cosmos 1125 Rocket 4.2 01:01:39 10° NW 01:06:19 32° W 01:07:07 31° WSW
Cosmos 1953 2.3 01:04:24 10° NNW 01:07:54 46° W 01:08:11 44° WSW
Tiangong -2.3 01:08:08 69° SSW 01:08:17 71° S 01:11:27 10° E
Cosmos 1709 Rocket 4.3 01:02:55 10° NNW 01:08:47 47° W 01:11:53 27° SSW
ATLAS 2AS CENTAUR R/B 2.9 01:05:43 10° NNW 01:12:30 74° NE 01:19:19 10° SE
NOAA 11 4.4 01:09:33 10° N 01:14:54 58° WNW 01:17:49 27° SW
Cosmos 1666 Rocket 3.8 01:10:43 10° NNW 01:15:00 49° W 01:16:40 32° SSW
CZ-2D R/B 2.3 01:09:52 10° NNE 01:15:17 73° ESE 01:19:22 18° S
NPP 4.5 01:11:38 10° N 01:16:31 36° WNW 01:18:56 24° WSW
Cosmos 2150 Rocket 4.0 01:15:56 10° NNW 01:21:22 75° WSW 01:26:47 10° SSE
H-2A R/B 2.5 01:17:59 10° SSE 01:21:29 63° ENE 01:25:02 10° N
IDEFIX/ARIANE 42P 3.9 01:17:29 10° NNW 01:21:38 25° WNW 01:23:52 19° W
Cosmos 2227 Rocket 4.3 01:24:03 10° WNW 01:26:58 14° NW 01:29:54 10° NNW
ALOS 2.1 01:24:06 10° NNE 01:28:40 84° WNW 01:31:48 20° SSW
Cosmos 783 Rocket 4.4 01:25:54 23° SSW 01:29:14 80° WNW 01:34:29 10° NNE
Meteor 1-12 Rocket 4.3 01:25:26 10° N 01:31:10 85° E 01:36:47 10° S
ARGOS 4.4 01:27:26 10° NNE 01:32:26 39° E 01:37:23 10° SSE
NOSS 7 (H) 4.5 01:29:49 10° NNW 01:32:45 67° NE 01:36:03 10° SE
MOZ.5/SAFIR/RUBIN 5/SL-8 4.2 01:30:36 23° SSW 01:32:55 39° W 01:37:13 10° NNW
H-2A R/B 2.2 01:27:30 10° NNE 01:32:55 86° E 01:37:40 14° SSW
Cosmos 1515 Rocket 3.6 01:32:58 21° SSW 01:35:51 68° W 01:40:16 10° N
Cosmos 2227 4.3 01:32:37 21° SW 01:36:28 70° WNW 01:42:13 10° NNE
NOSS 2-2 (E) 2.7 01:35:40 27° SW 01:37:27 88° NW 01:40:33 10° NE
DMSP B5D2-2 4.3 01:33:59 14° S 01:38:10 48° W 01:43:13 10° NNW
Cosmos 2263 Rocket 4.1 01:36:37 10° W 01:40:04 16° NW 01:43:32 10° N
IRIDIUM 104 4.3 01:39:45 10° N 01:45:00 82° W 01:50:12 10° S
Cosmos 2154 Rocket 4.0 01:42:25 10° N 01:48:42 83° W 01:54:53 10° S
Cosmos 1943 3.5 01:45:33 10° NW 01:50:48 42° WSW 01:56:00 10° S
Cosmos 2074 Rocket 4.0 01:47:27 10° NNW 01:53:41 67° W 01:59:51 10° S
IRIDIUM 114 4.3 01:48:57 10° N 01:54:08 67° W 01:59:18 10° S
Spot 2 4.4 01:50:46 10° S 01:55:40 62° WSW 02:00:31 10° NNW
Envisat 3.8 01:52:11 10° N 01:56:46 35° WNW 02:00:31 14° SW
Cosmos 2184 Rocket 4.0 01:51:45 10° NNW 01:57:49 64° W 02:03:53 10° S
Okean 2 4.2 01:57:27 17° SW 01:59:41 29° WNW 02:03:05 10° NNW
CENTAUR R/B 2.8 01:55:19 15° WSW 01:59:44 53° NW 02:06:28 10° NNE
IRIDIUM 103 4.5 01:58:09 10° NNW 02:03:15 55° W 02:08:19 10° SSW
Cosmos 1867 3.6 02:02:48 10° NW 02:08:11 60° WSW 02:13:31 10° SSE
METEOR-M 4.2 02:03:35 10° N 02:08:54 70° WNW 02:14:11 10° SSW
Cosmos 1844 Rocket 3.4 02:06:34 13° WSW 02:11:13 38° WNW 02:16:26 10° N
Cosmos 1733 Rocket 4.4 02:07:51 10° N 02:12:00 41° ENE 02:16:04 10° SSE
ADEOS II 2.5 02:09:17 10° N 02:14:15 46° WNW 02:19:12 10° SW
Cosmos 1603 3.8 02:09:32 10° NNW 02:15:12 61° WSW 02:20:49 10° S
Resurs 1-4 Rocket 3.2 02:15:19 10° N 02:19:44 28° WNW 02:24:09 10° WSW
AQUA 3.8 02:17:36 10° NNE 02:22:18 83° WNW 02:26:58 10° SSW
Okean 1-7 3.7 02:19:25 10° S 02:23:25 54° E 02:27:25 10° NNE
Cosmos 1812 0.7 02:25:48 10° N 02:27:31 79° E 02:29:13 10° S
Atlas Centaur 2 3.8 02:20:52 10° WSW 02:27:41 33° S 02:34:46 10° ESE
Cosmos 1933 Rocket 4.3 02:25:04 10° NNW 02:28:58 33° W 02:32:49 10° SSW
USA 307 4.3 02:31:10 10° WSW 02:32:02 11° SW 02:32:58 10° SSW
Cosmos 1538 Rocket 4.2 02:32:12 10° SW 02:37:14 55° WNW 02:42:18 10° NNE
